Temperature
18 17 17 17 18 18 18 18 18 18 18 18 18 18 17 17 17 17 17 18 18 18 19 19 19 18 18 18 18 18 17 17 17 16 16 16 15 15 15 15 14 14 14 14
17 17 18 18 18 18 18 17 17 18 18 18 17 17 17 17 17 17 17 18 18 18 18 18 18 18 19 18 18 18 17 17 17 16 16 16 15 15 15 15 14 14 14 14
18 18 19 19 18 18 18 17 17 18 18 18 18 17 17 17 17 17 17 18 18 19 19 19 19 19 19 18 18 18 18 17 17 16 16 16 15 15 15 15 14 14 14 14
18 18 19 19 19 18 18 18 18 18 17 16 17 17 17 17 17 17 17 18 18 19 19 19 19 19 19 18 18 18 18 17 17 16 16 16 16 15 15 15 15 14 14 14
18 18 18 19 19 19 18 18 18 18 17 16 16 16 16 16 17 16 17 18 18 19 19 19 19 19 19 18 18 18 18 17 17 17 16 16 16 15 15 15 15 14 14 14
18 19 19 19 19 19 18 17 17 16 16 16 16 16 16 15 17 17 17 18 18 19 19 19 19 19 19 18 18 18 18 17 17 17 16 16 16 16 15 15 15 15 14 14
18 18 18 19 18 18 17 16 16 16 16 16 16 16 16 17 17 17 17 18 18 19 19 19 19 19 18 18 18 18 17 17 17 17 16 16 16 15 15 15 15 15 14 14
18 17 18 18 18 18 17 17 16 17 16 16 17 16 17 17 17 18 18 19 19 19 19 19 19 19 18 18 18 18 17 17 17 17 16 16 16 15 15 15 15 15 14 14
17 18 19 19 18 18 17 16 16 15 16 16 16 17 17 17 17 17 17 18 18 18 18 19 19 19 18 18 18 18 17 17 17 17 16 16 16 16 15 15 15 15 15 14
18 18 18 18 18 18 17 16 15 16 16 16 17 17 17 17 17 16 16 17 18 18 18 18 19 18 18 18 18 17 17 17 17 16 16 16 16 16 15 15 15 15 15 14
18 17 18 18 19 18 17 17 15 14 15 16 17 17 17 17 17 16 16 17 18 18 18 18 18 18 18 18 18 17 17 17 17 16 16 16 16 15 15 15 15 15 15 14
17 16 17 18 19 19 18 17 16 16 16 15 16 16 17 16 16 16 16 17 18 18 18 18 18 18 18 18 17 17 17 17 17 16 16 16 16 15 15 15 15 15 14 14
17 16 17 18 18 18 19 17 16 15 14 14 16 17 16 15 16 16 16 17 17 18 18 18 18 18 18 18 17 17 17 16 16 16 16 16 16 15 15 15 15 15 14 14
17 16 17 18 18 18 18 18 17 16 15 15 16 17 16 16 15 15 16 17 17 18 18 18 18 18 17 17 17 17 16 16 16 16 16 16 15 15 15 15 15 14 14 14
17 17 18 18 19 19 19 18 17 17 16 16 17 16 16 15 15 16 16 17 17 17 18 18 18 17 17 17 17 17 16 16 16 16 16 15 15 15 15 14 14 14 14 14
16 17 18 18 19 18 18 18 18 17 17 16 16 16 16 16 16 16 16 17 17 17 18 18 17 17 17 17 17 17 16 16 16 16 15 15 15 15 14 14 14 14 14 14
15 16 17 17 18 19 18 18 18 17 17 16 16 16 15 14 15 16 17 17 17 18 18 18 17 17 17 17 16 16 16 16 15 15 15 15 15 14 14 14 14 14 14 13
15 15 14 16 18 19 18 18 18 17 17 16 16 16 15 16 16 17 18 18 18 18 18 17 17 17 17 16 16 16 16 15 15 15 15 14 14 14 14 14 14 13 13 13
15 15 14 15 17 17 18 18 17 17 17 16 15 15 15 16 16 15 17 17 18 18 18 17 17 17 16 16 16 16 15 15 15 15 14 14 14 14 14 13 13 13 13 13
14 14 14 14 17 17 18 18 18 18 17 16 16 15 15 16 14 14 17 17 17 17 17 17 17 16 16 16 15 15 15 15 14 14 14 14 13 13 13 13 13 12 12 12
15 14 14 14 16 16 17 17 18 18 18 17 17 16 16 16 16 17 17 17 17 17 17 17 16 16 16 15 15 15 15 14 14 14 13 13 13 13 13 12 12 12 12 12
15 14 14 13 15 16 16 16 17 17 18 18 17 17 17 17 17 17 17 17 17 16 16 16 16 16 15 15 15 14 14 14 13 13 13 13 12 12 12 12 12 11 11 11
13 14 13 14 15 15 16 16 18 18 18 18 18 18 18 17 17 17 16 16 16 16 16 16 15 15 14 14 14 14 13 13 13 13 12 12 12 12 12 11 11 11 11 11
12 12 12 13 14 14 15 17 18 19 19 19 18 18 18 17 17 16 16 16 16 15 15 15 15 14 14 14 13 13 13 12 12 12 12 12 11 11 11 11 11 10 10 10
13 12 12 13 13 14 16 17 18 18 18 18 17 17 17 17 16 16 16 15 15 15 14 14 14 14 13 13 13 12 12 12 12 11 11 11 11 11 10 10 10 10 10 9
11 12 13 14 14 14 15 17 17 18 18 17 17 16 16 16 16 15 15 14 14 14 14 13 13 13 13 12 12 12 11 11 11 11 11 10 10 10 10 10 10 9 9 9
Wind_Speed
3 4 1 3 4 4 4 4 2 1 1 3 3 2 1 2 3 3 3 3 4 3 2 2 3 4 4 4 4 4 5 4 4 3 3 2 2 2 2 3 4 5 5 5
5 1 3 3 4 5 5 4 1 1 2 3 3 2 1 2 4 4 5 4 4 3 2 2 3 3 4 4 4 4 4 4 3 2 2 2 2 1 1 2 4 5 5 5
3 3 2 4 4 5 3 5 4 3 2 4 3 3 2 1 2 2 2 3 3 5 5 4 3 3 3 4 5 5 4 4 3 3 3 3 3 3 3 3 3 4 5 5
2 2 2 3 3 5 2 3 5 4 4 2 2 0 3 1 1 1 2 3 4 4 4 4 4 3 3 3 3 4 4 4 4 4 4 4 2 1 1 1 2 4 5 5
2 1 3 2 2 4 3 4 5 4 4 3 3 2 4 0 2 4 5 4 4 4 5 5 5 5 3 3 4 4 4 3 3 3 4 4 3 1 0 1 3 4 4 5
2 1 2 2 2 4 6 7 6 5 4 1 1 2 3 3 6 5 5 5 4 4 4 4 4 4 3 3 4 4 4 3 3 3 4 4 3 2 1 2 3 3 3 3
2 2 1 2 5 4 5 6 3 3 2 2 2 2 5 5 5 6 7 6 5 5 5 4 5 5 4 4 4 4 4 2 2 3 3 3 3 2 1 0 1 2 2 3
2 2 2 2 4 5 4 5 5 4 3 2 1 3 5 4 2 3 4 5 5 5 4 4 5 5 4 4 4 4 4 3 2 2 2 2 2 2 1 1 1 1 2 2
4 2 1 1 2 7 5 3 4 6 3 1 3 4 5 2 4 4 5 6 6 5 4 4 4 4 4 4 4 5 5 3 2 2 2 2 1 1 1 1 1 1 2 2
5 2 1 1 4 4 5 7 5 5 4 1 2 3 3 3 2 3 5 5 5 5 4 4 4 3 3 3 3 3 4 3 2 2 2 2 1 2 1 1 1 2 2 2
4 3 1 1 3 5 4 4 4 4 4 5 2 5 4 6 6 7 6 6 6 6 5 4 3 3 3 3 3 3 2 2 2 1 1 1 0 0 0 0 2 2 2 2
4 4 1 4 3 4 5 6 7 5 3 4 3 5 3 4 5 7 7 6 6 6 5 4 4 4 4 3 2 2 2 2 1 1 1 1 1 1 1 1 2 2 2 2
6 5 3 3 3 1 2 4 4 6 5 4 4 4 3 4 5 6 7 7 6 6 5 4 4 3 3 2 2 2 2 1 1 2 2 2 1 1 1 2 2 2 2 2
5 4 5 7 5 5 3 4 5 6 4 4 6 4 1 4 6 6 6 6 6 5 5 5 3 2 2 2 2 2 1 1 2 3 3 2 1 1 1 2 2 2 2 2
5 3 3 3 3 4 3 5 7 6 7 7 6 6 7 8 8 7 7 7 7 6 5 5 4 3 2 2 2 2 2 2 3 3 2 1 1 1 1 2 2 2 2 2
4 4 2 1 1 3 1 3 5 5 4 4 3 3 3 4 6 6 7 8 7 6 6 5 4 4 3 3 2 2 2 2 3 3 1 1 1 2 2 1 2 2 2 2
4 5 3 1 3 2 2 4 6 4 4 7 7 7 6 6 8 9 9 9 8 7 6 6 5 4 4 3 3 3 2 3 3 2 1 1 1 1 1 1 2 2 2 2
7 5 4 2 2 3 6 2 5 5 3 4 5 6 9 8 6 4 5 8 7 7 6 6 5 4 3 3 3 3 4 4 3 2 1 1 1 1 1 1 1 1 1 1
5 7 5 3 2 4 5 2 5 5 2 3 6 7 7 7 6 2 2 6 7 7 6 5 5 4 4 4 4 5 4 4 3 2 1 1 0 0 1 1 2 1 1 2
5 5 6 4 4 6 7 3 3 5 2 3 7 10 10 9 5 5 5 6 6 6 5 5 5 5 5 3 5 6 4 3 1 0 1 1 0 0 1 2 2 1 1 2
3 3 5 5 4 7 6 2 4 5 7 5 8 11 12 8 6 6 7 6 6 6 6 6 7 6 4 4 5 5 3 1 1 0 1 1 1 0 0 1 1 1 2 2
7 6 5 5 4 7 3 5 7 6 2 6 8 9 8 6 7 8 8 8 8 7 6 6 6 5 3 4 5 5 2 1 0 1 2 2 1 1 1 1 1 2 1 2
6 7 6 7 7 4 3 5 3 3 4 4 7 7 9 9 7 7 7 7 7 7 6 5 6 5 3 2 4 4 1 1 1 2 1 2 2 2 1 1 1 2 2 2
3 2 4 3 4 3 3 2 1 2 3 4 7 9 10 9 9 8 8 7 6 5 5 5 6 5 2 1 2 2 1 1 2 2 1 2 2 3 3 1 1 1 2 2
4 5 3 3 4 2 3 2 2 3 6 8 7 7 9 11 10 8 8 7 6 5 4 5 5 4 3 2 1 1 1 2 2 1 1 2 2 2 3 3 2 3 3 4
4 6 7 6 7 6 4 3 4 7 7 9 10 8 8 9 10 8 7 6 5 5 4 4 4 3 2 2 1 0 1 2 2 1 1 1 2 2 2 3 4 5 5 8
Wind_Direction
50 73 143 202 177 153 140 137 130 269 236 114 125 141 155 134 135 158 171 184 189 202 195 151 146 133 129 127 130 134 126 122 113 96 92 84 59 15 14 11 14 21 22 25
52 351 228 158 136 123 124 123 140 19 46 99 102 69 54 154 176 186 186 190 192 176 141 133 125 128 140 149 149 144 146 147 140 124 122 121 121 65 356 343 5 17 16 15
159 240 190 144 135 131 139 158 170 163 82 53 81 25 16 130 134 148 183 188 183 181 180 168 153 152 148 165 169 161 158 147 133 115 99 77 55 34 17 3 352 351 0 7
222 263 149 137 159 149 191 186 150 131 103 36 66 146 296 228 174 218 222 202 202 188 174 170 168 164 175 188 163 147 142 133 128 124 118 115 109 101 292 304 321 339 2 7
258 191 137 159 192 152 154 111 107 102 104 70 35 120 286 159 215 240 232 214 211 191 176 179 178 175 170 155 139 135 125 123 126 127 129 119 109 126 346 351 359 359 358 8
250 252 161 165 84 109 110 86 69 52 72 68 256 152 270 229 215 220 217 207 201 188 172 169 159 146 141 126 123 126 125 128 132 130 128 130 133 121 63 17 3 351 346 349
10 359 353 120 98 74 96 102 70 29 22 260 222 169 250 249 223 202 198 196 189 172 158 156 153 150 148 143 140 136 136 140 142 139 143 149 151 145 156 238 312 331 338 337
128 286 254 170 155 150 151 139 153 171 198 271 329 235 258 277 238 176 160 155 146 149 159 158 161 162 159 153 147 145 154 164 157 155 160 154 151 155 202 227 230 265 276 287
161 228 293 145 133 132 132 141 152 126 121 70 292 292 315 48 75 105 121 124 134 148 154 151 150 154 156 156 161 166 165 167 169 171 154 160 173 180 222 257 268 283 287 299
151 161 291 140 91 51 132 141 107 115 137 192 298 282 246 224 175 145 144 144 143 139 139 141 144 147 149 150 147 143 156 168 170 167 176 175 203 216 222 230 288 301 308 323
135 133 1 97 176 170 126 116 112 113 144 149 205 267 232 204 189 174 174 162 154 152 150 148 143 130 119 112 121 131 140 132 129 151 157 137 193 254 206 290 291 296 312 320
145 124 176 250 253 181 161 164 151 150 183 162 167 263 304 198 174 165 161 157 153 147 143 138 127 111 103 109 116 130 135 135 151 144 118 108 78 59 38 346 323 319 324 324
141 121 98 358 353 103 159 160 154 128 121 149 164 258 353 106 128 146 150 152 144 136 127 118 112 115 122 127 127 125 129 148 131 112 100 75 60 50 0 339 339 347 350 347
124 120 163 190 211 193 189 173 156 136 148 183 209 219 267 154 150 155 154 150 142 140 139 133 129 128 129 129 130 127 114 130 116 103 97 78 31 340 320 339 355 359 8 6
112 148 199 233 231 174 189 188 174 177 180 181 210 199 214 195 181 168 155 145 139 142 144 148 150 148 137 125 119 115 105 104 107 102 91 57 12 22 29 20 4 3 8 4
114 147 150 339 16 169 186 209 180 188 174 177 163 235 222 159 134 142 155 153 154 159 160 158 153 147 148 152 147 132 121 121 113 106 94 38 43 37 29 15 19 20 6 358
133 135 122 268 314 79 268 227 188 185 186 168 190 211 157 150 166 175 173 167 169 169 164 161 161 163 164 166 157 151 149 122 109 102 72 45 45 27 354 12 40 16 351 358
142 126 127 130 87 218 246 251 175 165 192 194 182 171 167 168 162 158 163 169 169 164 158 157 154 147 140 130 124 116 107 105 101 81 45 24 33 349 348 24 2 332 332 330
142 134 121 125 171 277 291 218 161 157 236 202 171 156 140 119 89 55 169 166 169 164 156 153 151 141 124 114 116 106 93 89 85 65 3 325 303 314 342 329 306 300 312 313
73 99 117 129 160 224 244 235 177 120 270 226 169 160 152 132 142 219 185 152 143 139 137 134 127 114 112 115 115 104 98 87 80 295 288 305 327 141 292 287 290 291 291 293
103 90 130 155 196 252 252 227 128 153 230 198 171 166 161 170 182 164 146 139 132 126 127 128 122 121 129 131 118 108 102 117 255 296 22 9 347 332 311 326 319 311 315 327
167 158 169 153 185 247 233 142 172 206 191 157 165 164 158 144 122 129 140 138 131 123 120 122 119 113 113 129 125 119 143 236 22 68 47 12 347 338 5 16 351 345 346 343
185 185 179 183 205 245 229 213 226 159 154 166 161 153 143 136 136 133 136 137 133 130 129 125 123 113 99 119 130 137 193 165 99 71 33 353 350 348 349 354 331 336 339 328
237 155 144 206 255 261 260 263 246 176 163 155 149 144 142 140 141 135 135 133 129 127 132 128 122 120 119 119 122 151 164 130 105 87 1 343 347 338 335 327 298 298 299 301
204 158 153 217 257 296 298 247 181 122 116 119 120 129 138 135 135 136 136 135 134 130 132 134 137 143 154 147 129 135 144 123 103 72 4 341 330 317 318 314 290 276 264 258
199 177 173 211 211 185 221 219 152 135 136 137 128 119 126 134 136 130 130 131 131 131 129 126 127 134 148 148 148 205 158 139 130 88 334 320 314 310 309 313 317 302 287 299
Height
1504 1509 1514 1512 1511 1513 1516 1521 1524 1521 1517 1519 1521 1523 1522 1522 1524 1525 1526 1528 1530 1531 1533 1535 1537 1539 1540 1542 1543 1544 1545 1545 1546 1546 1546 1546 1546 1546 1545 1545 1544 1543 1542 1540
1510 1512 1508 1508 1509 1512 1516 1521 1524 1521 1518 1520 1523 1524 1523 1523 1524 1524 1525 1527 1529 1531 1533 1535 1537 1538 1540 1542 1543 1544 1545 1546 1546 1547 1547 1547 1546 1546 1546 1545 1545 1543 1542 1541
1511 1509 1505 1507 1510 1515 1518 1521 1522 1523 1521 1521 1524 1528 1526 1524 1524 1525 1526 1527 1529 1530 1532 1534 1536 1538 1540 1541 1543 1544 1545 1546 1547 1547 1547 1547 1547 1547 1546 1546 1545 1544 1543 1542
1508 1505 1505 1508 1511 1513 1519 1515 1516 1520 1526 1533 1530 1540 1530 1526 1525 1525 1526 1526 1527 1529 1532 1534 1536 1538 1539 1541 1543 1544 1546 1546 1547 1548 1548 1548 1547 1547 1547 1546 1545 1544 1543 1542
1508 1505 1506 1509 1509 1510 1514 1513 1517 1521 1527 1534 1534 1539 1536 1527 1528 1526 1524 1525 1526 1528 1531 1533 1535 1537 1539 1541 1543 1544 1546 1546 1547 1548 1548 1548 1548 1547 1547 1546 1546 1545 1544 1543
1506 1504 1505 1506 1507 1508 1512 1518 1522 1527 1532 1542 1537 1540 1539 1531 1525 1523 1522 1523 1525 1528 1530 1532 1535 1537 1539 1541 1542 1544 1545 1546 1547 1548 1548 1548 1548 1548 1547 1547 1546 1545 1544 1543
1510 1507 1505 1505 1510 1512 1515 1526 1539 1543 1547 1545 1535 1538 1535 1521 1519 1518 1520 1522 1524 1527 1529 1532 1534 1536 1538 1540 1542 1544 1545 1546 1547 1548 1548 1548 1548 1548 1547 1547 1546 1545 1544 1543
1517 1518 1507 1505 1508 1514 1517 1523 1538 1547 1550 1545 1536 1537 1527 1517 1516 1516 1518 1520 1523 1526 1529 1531 1533 1536 1538 1540 1542 1543 1545 1546 1547 1547 1548 1548 1548 1548 1547 1547 1546 1545 1545 1544
1515 1516 1505 1504 1505 1509 1518 1523 1523 1536 1540 1545 1540 1532 1522 1516 1516 1517 1518 1520 1523 1526 1528 1531 1534 1536 1538 1540 1541 1543 1544 1545 1546 1547 1547 1548 1548 1548 1547 1547 1546 1545 1545 1544
1506 1513 1507 1505 1506 1509 1512 1518 1528 1536 1546 1549 1540 1535 1531 1520 1519 1518 1519 1520 1523 1526 1528 1531 1534 1536 1538 1540 1541 1543 1544 1545 1546 1546 1547 1547 1547 1547 1547 1546 1546 1545 1544 1544
1503 1512 1512 1508 1510 1512 1516 1520 1525 1533 1535 1546 1547 1538 1517 1516 1515 1517 1518 1520 1522 1525 1528 1531 1533 1536 1538 1539 1541 1542 1543 1544 1545 1546 1546 1546 1547 1547 1546 1546 1545 1545 1544 1543
1502 1511 1517 1511 1505 1503 1507 1513 1521 1531 1536 1538 1541 1536 1512 1512 1513 1515 1518 1520 1523 1526 1529 1531 1534 1536 1537 1539 1541 1542 1543 1543 1544 1545 1545 1546 1546 1546 1545 1545 1544 1544 1543 1543
1501 1510 1521 1519 1516 1509 1508 1510 1514 1521 1531 1538 1540 1531 1513 1512 1514 1516 1518 1521 1523 1526 1529 1532 1534 1535 1537 1539 1540 1541 1542 1543 1544 1544 1544 1545 1545 1544 1544 1544 1543 1543 1542 1542
1495 1507 1515 1520 1515 1508 1508 1509 1512 1518 1529 1532 1529 1523 1516 1514 1515 1516 1518 1521 1524 1526 1529 1531 1533 1535 1537 1539 1540 1541 1542 1542 1543 1543 1543 1543 1543 1543 1543 1543 1542 1542 1541 1540
1495 1506 1505 1505 1502 1503 1504 1505 1509 1512 1515 1521 1518 1518 1513 1512 1513 1515 1518 1521 1523 1526 1528 1531 1533 1535 1536 1538 1539 1540 1541 1542 1542 1542 1542 1542 1542 1542 1542 1542 1541 1540 1540 1539
1496 1503 1504 1504 1501 1502 1504 1503 1506 1508 1510 1513 1514 1515 1508 1510 1512 1515 1517 1520 1522 1525 1527 1530 1532 1534 1536 1537 1538 1539 1540 1541 1541 1541 1541 1541 1541 1541 1540 1540 1540 1539 1538 1537
1498 1502 1509 1512 1505 1503 1510 1503 1503 1505 1504 1507 1512 1509 1508 1510 1511 1513 1515 1518 1520 1523 1526 1528 1531 1533 1535 1536 1538 1538 1539 1540 1540 1541 1540 1540 1540 1540 1539 1539 1538 1537 1537 1536
1496 1503 1511 1514 1510 1517 1506 1495 1496 1499 1500 1500 1500 1502 1504 1506 1508 1512 1514 1516 1519 1522 1525 1527 1530 1532 1534 1536 1537 1538 1538 1539 1539 1539 1539 1539 1539 1538 1538 1537 1536 1536 1535 1534
1491 1500 1511 1517 1517 1512 1501 1494 1495 1498 1501 1497 1499 1501 1504 1507 1510 1513 1514 1516 1519 1521 1524 1527 1529 1532 1533 1535 1536 1537 1537 1538 1538 1538 1538 1537 1537 1536 1536 1535 1534 1534 1533 1532
1494 1497 1508 1517 1516 1516 1500 1491 1490 1495 1502 1495 1496 1498 1502 1506 1514 1513 1513 1515 1518 1521 1524 1526 1529 1531 1533 1534 1535 1536 1536 1536 1536 1536 1536 1536 1535 1534 1534 1533 1532 1531 1530 1529
1499 1503 1508 1514 1513 1507 1492 1489 1491 1504 1500 1491 1493 1495 1499 1501 1504 1508 1511 1514 1517 1520 1523 1526 1528 1530 1532 1533 1534 1534 1535 1535 1535 1535 1534 1534 1533 1532 1532 1531 1530 1529 1528 1527
1497 1503 1508 1511 1512 1506 1488 1489 1492 1491 1486 1488 1491 1493 1497 1500 1503 1506 1510 1513 1516 1519 1522 1525 1527 1529 1530 1532 1533 1533 1533 1533 1533 1533 1532 1532 1531 1530 1529 1528 1527 1526 1525 1524
1492 1492 1494 1496 1496 1488 1485 1484 1484 1485 1486 1487 1489 1493 1496 1499 1502 1506 1509 1512 1516 1519 1522 1524 1526 1528 1529 1530 1531 1531 1532 1532 1531 1531 1530 1530 1529 1528 1527 1526 1525 1524 1522 1521
1488 1487 1489 1491 1487 1484 1483 1483 1483 1484 1485 1487 1489 1492 1495 1498 1502 1505 1508 1511 1515 1518 1521 1523 1525 1526 1528 1529 1529 1530 1530 1530 1529 1529 1528 1527 1526 1525 1524 1523 1522 1521 1519 1518
1483 1485 1487 1487 1484 1482 1481 1481 1482 1484 1485 1487 1490 1492 1495 1498 1501 1504 1507 1511 1514 1517 1520 1522 1523 1525 1526 1527 1528 1528 1528 1528 1527 1527 1526 1525 1524 1523 1522 1520 1519 1517 1516 1515
1480 1480 1483 1482 1478 1479 1479 1480 1482 1483 1484 1486 1489 1492 1496 1498 1501 1504 1507 1511 1514 1516 1519 1520 1522 1523 1524 1525 1526 1526 1526 1526 1525 1524 1523 1522 1521 1520 1519 1517 1516 1514 1513 1511